FW7504 Weather Reports


Display with metric or nautical units.
time (UTC)temp
F
wind
direction
speed
MPH
gust
MPH
rain 1hr
in
rain 24hr
in
rain mn
in
humidity
%
barometer
mb
20260506031553 70 0 0.0 2.0 0.00 0.00 0.00 60 1013.1
20260506031051 70 0 0.0 2.0 0.00 0.00 0.00 60 1012.9
20260506030551 70 360 0.0 1.0 0.00 0.00 0.00 60 1012.9
20260506030116 70 0 0.0 1.0 0.00 0.00 0.00 60 1012.9
20260506025551 70 0 0.0 2.0 0.00 0.00 0.00 59 1013.1
20260506025051 71 0 0.0 2.0 0.00 0.00 0.00 59 1013.3
20260506024558 71 0 0.0 3.0 0.00 0.00 0.00 59 1013.4
20260506024051 71 0 0.0 3.0 0.00 0.00 0.00 59 1013.4
20260506023550 71 360 1.0 3.0 0.00 0.00 0.00 59 1013.3
20260506023057 71 360 1.0 4.0 0.00 0.00 0.00 59 1013.2
20260506022551 71 360 1.0 4.0 0.00 0.00 0.00 59 1013.1
20260506022048 71 360 0.0 3.0 0.00 0.00 0.00 59 1012.8
20260506021609 71 360 1.0 5.0 0.00 0.00 0.00 58 1012.8
20260506021052 71 360 1.0 5.0 0.00 0.00 0.00 58 1013.0
20260506020551 71 0 1.0 5.0 0.00 0.00 0.00 58 1012.9
20260506020055 71 360 2.0 5.0 0.00 0.00 0.00 58 1012.6
20260506015549 71 360 2.0 5.0 0.00 0.00 0.00 58 1012.7
20260506015054 71 360 2.0 5.0 0.00 0.00 0.00 58 1012.7
20260506014612 71 360 1.0 5.0 0.00 0.00 0.00 57 1012.7
20260506014053 71 360 1.0 5.0 0.00 0.00 0.00 57 1012.5
20260506013553 71 360 2.0 5.0 0.00 0.00 0.00 57 1012.4
20260506013100 70 360 1.0 5.0 0.00 0.00 0.00 57 1012.5
20260506012553 70 360 1.0 3.0 0.00 0.00 0.00 57 1012.4
20260506012056 70 360 1.0 3.0 0.00 0.00 0.00 56 1012.3
20260506011600 70 360 0.0 2.0 0.00 0.00 0.00 56 1012.3
20260506011053 70 0 0.0 2.0 0.00 0.00 0.00 56 1012.4
20260506010553 70 0 0.0 2.0 0.00 0.00 0.00 56 1012.3
20260506010103 70 360 0.0 3.0 0.00 0.00 0.00 56 1012.3
20260506005553 71 0 0.0 3.0 0.00 0.00 0.00 56 1012.3
20260506005052 71 360 0.0 3.0 0.00 0.00 0.00 55 1012.4
20260506004555 71 360 0.0 2.0 0.00 0.00 0.00 55 1012.3
20260506004054 71 360 0.0 2.0 0.00 0.00 0.00 55 1012.6
20260506003553 71 0 0.0 2.0 0.00 0.00 0.00 54 1012.5
20260506003052 71 0 0.0 2.0 0.00 0.00 0.00 54 1012.5
20260506002555 71 0 0.0 2.0 0.00 0.00 0.00 54 1012.6
20260506002053 71 360 0.0 3.0 0.00 0.00 0.00 54 1012.7
20260506001559 71 360 1.0 3.0 0.00 0.00 0.00 54 1012.7
20260506001053 71 360 0.0 3.0 0.00 0.00 0.00 54 1012.7
20260506000552 71 0 0.0 2.0 0.00 0.00 0.00 53 1012.7
20260506000059 71 360 0.0 2.0 0.00 0.00 0.00 54 1012.6
20260505235556 71 0 0.0 2.0 0.00 0.00 0.00 53 1012.6
20260505235053 71 360 0.0 2.0 0.00 0.00 0.00 53 1012.5
20260505234554 72 360 0.0 3.0 0.00 0.00 0.00 53 1012.6
20260505234054 72 0 1.0 3.0 0.00 0.00 0.00 52 1012.8
20260505233554 72 360 1.0 3.0 0.00 0.00 0.00 52 1012.7
20260505233104 72 360 1.0 3.0 0.00 0.00 0.00 52 1012.7
20260505232553 71 360 0.0 3.0 0.00 0.00 0.00 52 1012.7
20260505232053 71 360 1.0 3.0 0.00 0.00 0.00 52 1012.7
20260505231552 71 360 1.0 3.0 0.00 0.00 0.00 52 1012.8
20260505231055 71 360 1.0 3.0 0.00 0.00 0.00 52 1012.5
20260505230553 71 360 1.0 4.0 0.00 0.00 0.00 52 1012.6
20260505230056 71 360 1.0 4.0 0.00 0.00 0.00 54 1012.6
20260505225553 71 360 0.0 3.0 0.00 0.00 0.00 54 1012.5
20260505225054 70 360 1.0 3.0 0.00 0.00 0.00 54 1012.6
20260505224552 70 0 0.0 3.0 0.00 0.00 0.00 55 1012.7
20260505224056 70 360 0.0 3.0 0.00 0.00 0.00 55 1012.9
20260505223552 70 360 0.0 3.0 0.00 0.00 0.00 56 1012.8
20260505223054 69 360 0.0 2.0 0.00 0.00 0.00 57 1012.5
20260505222553 69 0 0.0 2.0 0.00 0.00 0.00 59 1012.5
20260505222053 69 0 0.0 2.0 0.00 0.00 0.00 59 1012.6
20260505221601 69 360 0.0 2.0 0.00 0.00 0.00 61 1012.7
20260505221056 69 0 0.0 2.0 0.00 0.00 0.00 60 1012.9
20260505220553 69 0 0.0 2.0 0.00 0.00 0.00 60 1012.8
20260505220057 70 360 0.0 2.0 0.00 0.00 0.00 59 1012.7
20260505215553 70 0 0.0 4.0 0.00 0.00 0.00 60 1012.5
20260505215053 71 0 0.0 4.0 0.00 0.00 0.00 61 1012.5
20260505214553 72 0 0.0 3.0 0.00 0.00 0.00 57 1012.4
20260505214053 72 0 0.0 4.0 0.00 0.00 0.00 56 1012.5
20260505213553 72 360 1.0 4.0 0.00 0.00 0.00 50 1013.1
20260505213102 73 360 1.0 3.0 0.00 0.00 0.00 49 1013.2
20260505212553 73 360 1.0 4.0 0.00 0.00 0.00 48 1013.1
20260505212053 74 360 1.0 6.0 0.00 0.00 0.00 47 1013.4
20260505211556 74 360 2.0 6.0 0.00 0.00 0.00 45 1013.5
20260505211053 75 360 1.0 6.0 0.00 0.00 0.00 48 1013.5
20260505210555 75 360 0.0 5.0 0.00 0.00 0.00 48 1013.5
20260505210106 75 0 1.0 5.0 0.00 0.00 0.00 48 1013.3
20260505205554 75 360 1.0 5.0 0.00 0.00 0.00 47 1013.2
20260505205057 75 360 2.0 5.0 0.00 0.00 0.00 46 1013.2
20260505204555 75 360 3.0 5.0 0.00 0.00 0.00 45 1013.3
20260505204053 76 360 2.0 5.0 0.00 0.00 0.00 45 1013.2
20260505203556 76 360 3.0 5.0 0.00 0.00 0.00 43 1013.2
20260505203056 76 360 2.0 5.0 0.00 0.00 0.00 44 1013.3
20260505202553 76 360 2.0 8.0 0.00 0.00 0.00 45 1013.2
20260505202053 77 360 3.0 8.0 0.00 0.00 0.00 47 1013.4
20260505201555 77 360 3.0 8.0 0.00 0.00 0.00 47 1013.5
20260505201053 78 360 3.0 8.0 0.00 0.00 0.00 47 1013.6
20260505200554 78 360 4.0 8.0 0.00 0.00 0.00 46 1013.7
20260505200055 79 360 4.0 8.0 0.00 0.00 0.00 48 1013.7
20260505195552 78 360 1.0 8.0 0.00 0.00 0.00 49 1013.6
20260505195052 78 360 2.0 9.0 0.00 0.00 0.00 48 1013.6
20260505194558 78 360 4.0 10.0 0.00 0.00 0.00 45 1013.6
20260505194054 78 360 5.0 10.0 0.00 0.00 0.00 46 1013.7
20260505193553 78 360 4.0 9.0 0.00 0.00 0.00 45 1013.8
20260505193110 78 360 1.0 8.0 0.00 0.00 0.00 46 1013.9
20260505192555 78 360 2.0 8.0 0.00 0.00 0.00 47 1013.9
20260505192053 78 360 4.0 8.0 0.00 0.00 0.00 45 1014.0
20260505191559 78 360 2.0 6.0 0.00 0.00 0.00 45 1014.2
20260505191053 78 0 1.0 5.0 0.00 0.00 0.00 46 1014.1
20260505190553 77 360 1.0 5.0 0.00 0.00 0.00 47 1013.9
20260505190056 77 360 2.0 9.0 0.00 0.00 0.00 45 1013.9
20260505185553 77 360 2.0 9.0 0.00 0.00 0.00 46 1014.2
20260505185053 77 360 4.0 9.0 0.00 0.00 0.00 45 1014.3
20260505184556 77 360 4.0 9.0 0.00 0.00 0.00 43 1014.2
20260505184053 76 360 3.0 11.0 0.00 0.00 0.00 43 1014.5
20260505183552 76 360 4.0 11.0 0.00 0.00 0.00 45 1014.5
20260505183057 76 360 4.0 10.0 0.00 0.00 0.00 46 1014.6
20260505182552 77 360 3.0 11.0 0.00 0.00 0.00 45 1014.8
20260505182052 76 360 4.0 11.0 0.00 0.00 0.00 44 1014.9
20260505181552 76 360 5.0 11.0 0.00 0.00 0.00 44 1015.1
20260505181054 76 360 3.0 8.0 0.00 0.00 0.00 43 1015.1
20260505180553 76 360 3.0 13.0 0.00 0.00 0.00 45 1015.2
20260505180056 76 360 2.0 13.0 0.00 0.00 0.00 44 1014.9
20260505175553 77 360 3.0 13.0 0.00 0.00 0.00 43 1014.8
20260505175053 76 360 3.0 10.0 0.00 0.00 0.00 46 1015.0
20260505174557 76 360 4.0 9.0 0.00 0.00 0.00 45 1015.0
20260505174056 76 360 2.0 9.0 0.00 0.00 0.00 46 1015.2
20260505173553 76 360 3.0 10.0 0.00 0.00 0.00 45 1015.2
20260505173051 76 360 4.0 10.0 0.00 0.00 0.00 45 1015.2
20260505172552 76 360 1.0 5.0 0.00 0.00 0.00 49 1015.2
20260505172052 76 360 2.0 8.0 0.00 0.00 0.00 49 1015.3
20260505171552 75 360 2.0 8.0 0.00 0.00 0.00 47 1015.5
20260505171053 75 360 3.0 8.0 0.00 0.00 0.00 47 1015.6
20260505170552 75 360 2.0 8.0 0.00 0.00 0.00 47 1015.9
20260505170054 75 360 2.0 8.0 0.00 0.00 0.00 46 1016.0
20260505165552 75 360 3.0 10.0 0.00 0.00 0.00 47 1016.1
20260505165053 74 360 2.0 10.0 0.00 0.00 0.00 47 1016.0
20260505164552 74 360 3.0 6.0 0.00 0.00 0.00 51 1015.8
20260505164053 74 360 2.0 5.0 0.00 0.00 0.00 51 1016.1
20260505163553 73 360 2.0 8.0 0.00 0.00 0.00 54 1016.1
20260505163054 73 360 3.0 8.0 0.00 0.00 0.00 53 1016.2
20260505162555 73 360 3.0 8.0 0.00 0.00 0.00 54 1016.2
20260505162054 73 360 3.0 6.0 0.00 0.00 0.00 55 1016.0
20260505161554 73 360 2.0 5.0 0.00 0.00 0.00 54 1015.9
20260505161053 72 360 1.0 5.0 0.00 0.00 0.00 59 1016.0
20260505160553 72 0 1.0 4.0 0.00 0.00 0.00 58 1015.9
20260505153107 71 360 0.0 4.0 0.00 0.00 0.00 62 1016.4
20260505152554 70 360 2.0 5.0 0.00 0.00 0.00 60 1016.4
20260505152053 70 360 1.0 5.0 0.00 0.00 0.00 60 1016.3
20260505151554 70 360 2.0 6.0 0.00 0.00 0.00 61 1016.4
20260505151057 70 360 2.0 6.0 0.00 0.00 0.00 61 1016.6
20260505150553 70 0 1.0 4.0 0.00 0.00 0.00 64 1016.4
20260505140553 65 0 0.0 1.0 0.00 0.00 0.00 70 1016.5
20260505124603 57 0 0.0 0.0 0.00 0.00 0.00 79 1016.3
20260505124052 57 0 0.0 0.0 0.00 0.00 0.00 79 1016.3
20260505123557 57 0 0.0 0.0 0.00 0.00 0.00 78 1016.1
20260505123114 56 0 0.0 0.0 0.00 0.00 0.00 78 1016.1
20260505122553 56 0 0.0 0.0 0.00 0.00 0.00 78 1016.0
20260505122053 56 0 0.0 2.0 0.00 0.00 0.00 81 1015.8
20260505121557 55 0 0.0 2.0 0.00 0.00 0.00 80 1015.8
20260505121057 55 360 0.0 2.0 0.00 0.00 0.00 80 1015.8
20260505120554 54 0 0.0 0.0 0.00 0.00 0.00 82 1015.8
20260505120108 54 0 0.0 0.0 0.00 0.00 0.00 82 1015.6
20260505115552 54 0 0.0 0.0 0.00 0.00 0.00 82 1015.5
20260505115052 53 0 0.0 0.0 0.00 0.00 0.00 82 1015.6
20260505114600 53 0 0.0 0.0 0.00 0.00 0.00 82 1015.5
20260505114052 53 0 0.0 0.0 0.00 0.00 0.00 82 1015.4
20260505113557 53 0 0.0 0.0 0.00 0.00 0.00 82 1015.3
20260505113102 53 0 0.0 0.0 0.00 0.00 0.00 82 1015.3
20260505112553 53 0 0.0 0.0 0.00 0.00 0.00 82 1015.2
20260505112053 53 0 0.0 0.0 0.00 0.00 0.00 81 1015.1
20260505111606 53 0 0.0 0.0 0.00 0.00 0.00 81 1015.0
20260505111053 53 0 0.0 0.0 0.00 0.00 0.00 81 1015.0
20260505110553 53 0 0.0 0.0 0.00 0.00 0.00 81 1014.9
20260505110119 53 0 0.0 0.0 0.00 0.00 0.00 80 1014.9
20260505102052 54 0 0.0 0.0 0.00 0.00 0.00 77 1014.4
20260505101601 55 0 0.0 0.0 0.00 0.00 0.00 76 1014.4
20260505101052 55 0 0.0 0.0 0.00 0.00 0.00 76 1014.2
20260505100553 55 0 0.0 0.0 0.00 0.00 0.00 76 1014.2
20260505100104 56 0 0.0 0.0 0.00 0.00 0.00 75 1014.2
20260505095554 56 0 0.0 0.0 0.00 0.00 0.00 74 1014.1
20260505095053 56 0 0.0 0.0 0.00 0.00 0.00 74 1014.1
20260505094555 56 0 0.0 0.0 0.00 0.00 0.00 74 1014.1
20260505094052 57 0 0.0 0.0 0.00 0.00 0.00 73 1014.2
20260505093552 57 0 0.0 0.0 0.00 0.00 0.00 72 1014.3
20260505093052 57 0 0.0 0.0 0.00 0.00 0.00 71 1014.4
20260505092553 58 0 0.0 1.0 0.00 0.00 0.00 70 1014.4
20260505092053 58 0 0.0 1.0 0.00 0.00 0.00 70 1014.2
20260505091617 57 0 0.0 0.0 0.00 0.00 0.00 70 1014.3
20260505091052 57 0 0.0 0.0 0.00 0.00 0.00 69 1014.3
20260505090553 57 0 0.0 0.0 0.00 0.00 0.00 70 1014.1
20260505090119 57 0 0.0 0.0 0.00 0.00 0.00 70 1014.2
20260505085552 57 0 0.0 0.0 0.00 0.00 0.00 71 1014.2
20260505085052 57 0 0.0 0.0 0.00 0.00 0.00 71 1014.1
20260505084611 57 0 0.0 0.0 0.00 0.00 0.00 72 1014.1
20260505084051 57 0 0.0 0.0 0.00 0.00 0.00 71 1014.2
20260505083555 57 0 0.0 0.0 0.00 0.00 0.00 72 1014.4
20260505083111 57 0 0.0 0.0 0.00 0.00 0.00 72 1014.4
20260505082552 57 0 0.0 0.0 0.00 0.00 0.00 72 1014.5
20260505082053 56 0 0.0 0.0 0.00 0.00 0.00 73 1014.6
20260505081603 56 0 0.0 0.0 0.00 0.00 0.00 73 1014.5
20260505081053 56 0 0.0 0.0 0.00 0.00 0.00 74 1014.5
20260505080552 56 0 0.0 0.0 0.00 0.00 0.00 74 1014.5
20260505075552 57 0 0.0 0.0 0.00 0.00 0.00 73 1014.6
20260505075053 57 0 0.0 0.0 0.00 0.00 0.00 74 1014.5
20260505074556 57 0 0.0 0.0 0.00 0.00 0.00 73 1014.5
20260505074053 57 0 0.0 0.0 0.00 0.00 0.00 72 1014.5
20260505073553 57 0 0.0 0.0 0.00 0.00 0.00 72 1014.4
20260505073056 57 0 0.0 0.0 0.00 0.00 0.00 72 1014.5
20260505072556 57 0 0.0 0.0 0.00 0.00 0.00 72 1014.6
20260505072053 57 0 0.0 0.0 0.00 0.00 0.00 72 1014.6
20260505071613 57 0 0.0 0.0 0.00 0.00 0.00 72 1014.6
20260505071056 57 0 0.0 0.0 0.00 0.00 0.00 72 1014.5
20260505070553 57 0 0.0 0.0 0.00 0.00 0.00 72 1014.5
20260505070054 57 0 0.0 0.0 0.00 0.00 0.00 72 1014.5
20260505065553 58 0 0.0 0.0 0.00 0.00 0.00 72 1014.5
20260505065052 58 0 0.0 0.0 0.00 0.00 0.00 72 1014.6
20260505064555 58 0 0.0 0.0 0.00 0.00 0.00 72 1014.7
20260505064055 58 0 0.0 0.0 0.00 0.00 0.00 72 1014.8
20260505063555 58 0 0.0 0.0 0.00 0.00 0.00 72 1014.7
20260505063054 58 0 0.0 0.0 0.00 0.00 0.00 72 1014.7
20260505062552 58 0 0.0 0.0 0.00 0.00 0.00 72 1014.8
20260505062051 59 0 0.0 0.0 0.00 0.00 0.00 72 1014.9
20260505061556 59 0 0.0 0.0 0.00 0.00 0.00 72 1014.8
20260505061052 59 0 0.0 0.0 0.00 0.00 0.00 72 1014.8
20260505060552 59 0 0.0 0.0 0.00 0.00 0.00 72 1014.8
20260505055552 59 0 0.0 0.0 0.00 0.00 0.00 72 1014.7
20260505055059 59 0 0.0 0.0 0.00 0.00 0.00 72 1014.8
20260505054554 59 0 0.0 0.0 0.00 0.00 0.00 72 1014.9
20260505054052 59 0 0.0 0.0 0.00 0.00 0.00 72 1014.8
20260505053552 59 0 0.0 0.0 0.00 0.00 0.00 72 1015.0
20260505053100 59 0 0.0 0.0 0.00 0.00 0.00 71 1015.0
20260505052553 59 0 0.0 0.0 0.00 0.00 0.00 71 1014.9
20260505052052 59 0 0.0 0.0 0.00 0.00 0.00 71 1014.9
20260505051552 59 0 0.0 0.0 0.00 0.00 0.00 71 1014.9
20260505051053 60 0 0.0 0.0 0.00 0.00 0.00 71 1014.8
20260505050553 60 0 0.0 0.0 0.00 0.00 0.00 70 1014.8
20260505041605 61 0 0.0 0.0 0.00 0.00 0.00 69 1014.8
20260505041052 61 0 0.0 0.0 0.00 0.00 0.00 70 1014.7
20260505040553 62 0 0.0 0.0 0.00 0.00 0.00 68 1014.8
20260505040057 62 0 0.0 0.0 0.00 0.00 0.00 66 1014.8
20260505035552 62 0 0.0 0.0 0.00 0.00 0.00 66 1014.8
20260505035052 62 0 0.0 0.0 0.00 0.00 0.00 66 1014.8
20260505034550 62 0 0.0 0.0 0.00 0.00 0.00 66 1014.7
20260505034052 62 0 0.0 0.0 0.00 0.00 0.00 66 1014.7
20260505033552 62 0 0.0 0.0 0.00 0.00 0.00 66 1014.8
20260505033051 62 0 0.0 0.0 0.00 0.00 0.00 66 1014.9
20260505032551 62 0 0.0 0.0 0.00 0.00 0.00 65 1014.9
20260505032052 62 0 0.0 0.0 0.00 0.00 0.00 65 1014.8